Showing default

QPS-SAR-9 SUSANOO-I, 63205

Orbit data source: Space-Track

QPS-SAR-9 SUSANOO-I, 63205 is a payload satellite owned by QPS Labs (JP) in LEO that was launched on Sat, 15 Mar 2025 UTC via an ELECTRON launch vehicle from the Rocket Lab Launch Complex (RLLC). Payload-class satellites include a variety of spacecraft equipped with specific instruments for various scientific and technological missions. These include communications satellites like Starlink; space stations such as the ISS; scientific satellites like the Hubble; Earth observation satellites from companies like Planet Labs, Umbra, and HawkEye 360; GPS; miniature CubeSats for education and research; and military/defense satellites.

Loading next visibility...
Identifier
63205, 2025-050A
Orbit
LEO
Country
Flag of JPJP / JPN
Related business
Manufacturer
QPS Labs
Mission
Operational Commercial Radar Imaging
Bus & Motor
QSAT, Unknown motor
Mass
~120 kg wet, ~100 kg dry
Launch date (UTC)
2025-03-15 (6 months ago)
Launch vehicle
ELECTRON
Launch site
Rocket Lab Launch Complex (RLLC)
Object type
Payload
Rocket body
Debris
Shape & HBR
Hex Cyl + 2 Pan + 1 Dish, 1.8 m
Radar Cross Section
1.179 m², Large (>1 m²)

Expand to show TLE details & history
Last TLE update: 14 hours ago

TLE from 14 hours ago
0 QPS-SAR-9 SUSANOO-I
1 63205U 25050A   25258.70413228  .00005914  00000-0  49320-3 0  9997
2 63205  42.0198 174.8621 0001045  29.7102 330.3782 14.99105255 27705
Epoch: 2025-09-15T16:53Z
TLE epoch observation values (Epoch: 2025-09-15T16:53:57.028Z)
Latitude
-0.00008°
Longitude
-73.53058°
Altitude
568.699 km
Speed
7.579 km/s
True Right ascension
11h 39m 26s
True Declination
0° 00' 00"
Sunlit
Object was in daylight at epoch
Visualization orbit readout
Latitude
Unknown
Longitude
Unknown
Altitude
Unknown
Speed
Unknown
Apparent Right ascension
Unknown
Apparent Declination
Unknown
Sunlit
N/A
Visualization observer readout
Local Sidereal Time
23:40:46
Azimuth
Unknown
Elevation
Unknown
Doppler factor
Unknown
Orbital elements
Apogee altitude
572.469 km
Perigee altitude
571.016 km
Semi-major axis
6,949.88 km
Eccentricity
0.0001
Inclination
42.0198°
RAAN
174.8621°
Arg. of periapsis
29.7102°
True anomaly
330.37228°
Mean anomaly
330.3782°
Eccentric anomaly
330.37524°
Mean motion
3.74608 °/min
Orbital period
96.1 mins
BSTAR
0.0004932
Loading maneuver chart data...
Computing Atmospheric mass density...
Loading historical data...
Loading historical data...
Loading historical data...
Loading historical data...
Loading historical data...
Loading historical data...
Loading historical data...
Other satellites on launch #50 in the year 2025 (2025-03-15 UTC)

Documentation

Showing up to 5 results
|